Regional Weather Roundup
Issued by NWS Upton, NY

Current Version | Previous Version | Text Only | Print | Product List | Glossary On
Versions: 1 2 3 4 5 6 7 8 9 10 11 12 13 14 15 16 17 18 19 20 21 22 23 24 25 26 27
000
ASUS41 KOKX 240505
RWROKX

REGIONAL WEATHER ROUNDUP
NATIONAL WEATHER SERVICE NEW YORK NY
100 AM EDT THU APR 24 2014

NOTE: "FAIR" INDICATES FEW OR NO CLOUDS BELOW 12,000 FEET WITH NO
SIGNIFICANT WEATHER AND/OR OBSTRUCTIONS TO VISIBILITY.

NYZ071-072-176-178-NJZ106-104-240600-
NEW YORK CITY METRO AREA


CITY           SKY/WX    TMP DP  RH WIND       PRES   REMARKS
CENTRAL PARK   CLEAR     45  29  53 VRB7G25   29.86R
LAGUARDIA APRT PTCLDY    45  30  55 NW18G31   29.84R
KENNEDY INTL   PTCLDY    45  29  53 NW22G32   29.84R
NEWARK/LIBERTY PTCLDY    45  29  53 NW14G23   29.86R
TETERBORO      CLEAR     45  30  55 NW14G23   29.84S
$$

NYZ177-179-078>081-240600-
LONG ISLAND NEW YORK

CITY           SKY/WX    TMP DP  RH WIND       PRES   REMARKS
FARMINGDALE    PTCLDY    44  29  55 NW10      29.81R
ISLIP          MOCLDY    47  25  42 NW18G28   29.77R
SHIRLEY        CLOUDY    47  26  44 NW22G31   29.78R
WESTHAMPTON    CLOUDY    47  28  47 NW22G28   29.76R
MONTAUK POINT    N/A     47  34  60 NW17G26   29.71R
$$

NYZ052-065-067-240600-
HUDSON VALLEY

CITY           SKY/WX    TMP DP  RH WIND       PRES   REMARKS
WHITE PLAINS   CLEAR     43  28  55 NW20      29.79R
NEWBURGH       CLEAR     41  30  65 W18       29.83S
MONTGOMERY     CLEAR     41  28  60 VRB3      29.83F
POUGHKEEPSIE   CLEAR     44  26  49 W12       29.80F
ALBANY         PTCLDY    40  29  64 W12       29.82R WCI  33
$$

NJZ001-105-106-008-010-013-015-019>022-104-240600-
NEW JERSEY

CITY           SKY/WX    TMP DP  RH WIND       PRES   REMARKS
NEWARK/LIBERTY PTCLDY    45  29  53 NW14G23   29.86R
TETERBORO      CLEAR     45  30  55 NW14G23   29.84S
CALDWELL       CLEAR     43  29  57 NW13G20   29.87R
MORRISTOWN     CLEAR     45  28  53 NW6       29.87S
SOMERVILLE     CLEAR     44  27  51 NW7       29.87S
LINDEN         FAIR      45  31  57 NW13G20   29.89S
SUSSEX         CLEAR     42  29  59 VRB3      29.87S
ANDOVER          N/A     40  28  62 N8        29.88R WCI  34
TRENTON        CLEAR     44  24  45 NW7G24    29.89R
MILLVILLE      CLEAR     45  28  51 NW10      29.93R
ATLANTIC CITY  CLEAR     44  25  47 NW15      29.90R
WRIGHTSTOWN    CLEAR     43  25  49 W10       29.88S
TOMS RIVER     CLEAR     43  27  52 NW6       29.89R
BELMAR         CLEAR     43  25  49 NW12      29.87R
$$

PAZ047>061-062-071-240600-
EASTERN PENNSYLVANIA

CITY           SKY/WX    TMP DP  RH WIND       PRES   REMARKS
PHILADELPHIA   CLEAR     47  25  42 NW12      29.94F
ALLENTOWN      CLEAR     43  25  49 NW10      29.92R
SCRANTON       CLEAR     39  25  57 W12G17    29.92R WCI  32
$$

CTZ002-004>006-009-010-012-RIZ004-006-007-MAZ004-011-015-240600-
SOUTHERN NEW ENGLAND
 IN CT

CITY           SKY/WX    TMP DP  RH WIND       PRES   REMARKS
BRADLEY INTL   PTCLDY    44  28  53 NW16G30   29.72R
HARTFORD       MOCLDY    45  28  51 NW12G26   29.74R
DANBURY        CLEAR     44  23  43 NW10G20   29.79S
WTRBRY/OXFORD  CLEAR     43  23  45 NW17G25   29.77S
BRIDGEPORT     CLEAR     47  25  42 N14G30    29.76S
MERIDEN        CLEAR     45  27  49 NW16G24   29.75R
NEW HAVEN      CLEAR     47  27  45 NW12G28   29.75S
CHESTER        CLOUDY    45  30  57 NW21G31   29.71S
GROTON         CLOUDY    47  32  56 NW16G24   29.69R
WILLIMANTIC    CLOUDY    47  27  45 NW13G21   29.70R

 IN RI

CITY           SKY/WX    TMP DP  RH WIND       PRES   REMARKS
PROVIDENCE     CLOUDY    47  29  49 NW13G28   29.65R
BLOCK ISLAND   MOCLDY    46  30  53 NW12G24   29.67R
WESTERLY       CLOUDY    47  31  53 NW8       29.69R

 IN MA

CITY           SKY/WX    TMP DP  RH WIND       PRES   REMARKS
BOSTON         PTCLDY    47  29  49 NW23G32   29.62R
WORCESTER      MOCLDY    42  27  55 NW20G32   29.65R
WESTFIELD      PTCLDY    45  25  45 N16G25    29.72R
PROVINCETOWN   CLOUDY    45  36  70 MISG      29.57R
NANTUCKET      CLOUDY    48  33  56 NW17G32   29.56R
$$

ANZ330-335-338-340-345-350-353-355-240600-
COASTAL MARINE OBSERVATIONS


STATION/POSITION TIME  SKY/WX   TEMP    WIND        PRES    VSBY  WAVE
                                AIR SEA DIR/SP/G                  HT/PER
                 (UTC)          (F)     (DEG/KT/KT) (MB)    (MI)  (FT/S)
NY HARB ENTRANCE 0500            45 45  VRB 23/ 27  1009.6
4S FIRE IS       0400               45                N/A           3/ 5
23SW MTP         0500            45 43  300/ 19/ 23 1005.8          5/ 6
HUDSON CANYON    0400            45 45  310/ 27/ 31 1007.5         10/ 7
EXECUTION ROCKS  0500            45 45  310/ 16/ 23   N/A
WESTERN LI SOUND 0500            46     300/ 14/ 16   N/A           1
CENTRAL LI SOUND 0400            46 44  290/ 21/ 25   N/A           3/ 4
EASTERN LI SOUND NOT AVBL
ROBBINS REEF     0500            45     310/ 14/ 20   N/A
$$


>>>>>>>>>>>>>>>>>>>>>>>>>>>> KEY <<<<<<<<<<<<<<<<<<<<<<<<<<<
>                                                          <
>     SKY/WX - SKY CONDITION/PRESENT WEATHER               <
>     TMP    - TEMPERATURE IN FAHRENHEIT                   <
>     DP     - DEWPOINT IN FAHRENHEIT                      <
>     RH     - RELATIVE HUMIDITY IN PERCENT                <
>     WIND   - DIRECTION AND SPEED IN MPH                  <
>     PRES   - MEAN SEA LEVEL PRESSURE IN INCHES OF HG     <
>     WCI    - WIND CHILL INDEX                            <
>     VSB    - VISIBILITY IN MILES                         <
>     HX     - HEAT INDEX                                  <
>     TC     - TEMPERATURE IN CELSIUS                      <
>     VRB    - VARIABLE WIND DIRECTION                     <
>                                                          <
>>>>>>>>>>>>>>>>>>>>>>>>>>>> KEY <<<<<<<<<<<<<<<<<<<<<<<<<<<





USA.gov is the U.S. government's official web portal to all federal, state and local government web resources and services.